FW9099 Weather Reports


time (UTC)temp
C
wind
direction
speed
KPH
gust
KPH
rain 1hr
cm
rain 24hr
cm
rain mn
cm
humidity
%
barometer
mb
20260505013023 12 252 0.0 3.2 0.00 0.00 0.00 64 1010.9
20260505011558 13 239 1.6 8.0 0.00 0.00 0.00 63 1010.8
20260505010059 13 149 0.0 6.4 0.00 0.00 0.00 62 1010.6
20260505004545 13 193 0.0 3.2 0.00 0.00 0.00 60 1010.4
20260505003009 14 200 0.0 3.2 0.00 0.00 0.00 59 1010.1
20260505001549 15 230 0.0 3.2 0.00 0.00 0.00 57 1009.8
20260505000004 15 218 1.6 11.3 0.00 0.00 0.00 55 1009.7
20260504234543 15 240 1.6 6.4 0.00 0.00 0.00 54 1009.5
20260504233018 16 238 1.6 11.3 0.00 0.00 0.00 52 1009.2
20260504231555 16 218 1.6 8.0 0.00 0.00 0.00 51 1009.0
20260504230059 17 209 1.6 11.3 0.00 0.00 0.00 50 1008.9
20260504230001 17 213 0.0 11.3 0.00 0.00 0.00 49 1008.9
20260504224535 17 265 0.0 4.8 0.00 0.00 0.00 48 1008.6
20260504223016 17 221 3.2 9.7 0.00 0.00 0.00 48 1008.7
20260504221553 18 265 1.6 9.7 0.00 0.00 0.00 46 1008.5
20260504220049 20 221 1.6 6.4 0.00 0.00 0.00 43 1008.4
20260504214531 20 219 1.6 11.3 0.00 0.00 0.00 41 1008.4
20260504213013 20 247 1.6 8.0 0.00 0.00 0.00 40 1008.3
20260504211618 21 276 0.0 8.0 0.00 0.00 0.00 38 1008.2
20260504210053 22 169 0.0 8.0 0.00 0.00 0.00 36 1008.0
20260504204532 22 240 1.6 14.5 0.00 0.00 0.00 35 1008.1
20260504203007 22 237 0.0 11.3 0.00 0.00 0.00 35 1008.0
20260504201545 22 157 3.2 12.9 0.00 0.00 0.00 33 1008.2
20260504200054 22 255 3.2 16.1 0.00 0.00 0.00 33 1008.2
20260504194533 22 265 1.6 14.5 0.00 0.00 0.00 34 1008.1
20260504193009 22 226 1.6 8.0 0.00 0.00 0.00 32 1008.2
20260504191606 22 84 1.6 22.5 0.00 0.00 0.00 32 1008.2
20260504190108 22 221 1.6 11.3 0.00 0.00 0.00 33 1008.4
20260504184545 22 229 3.2 9.7 0.00 0.00 0.00 31 1008.5
20260504183011 22 67 1.6 9.7 0.00 0.00 0.00 32 1008.5
20260504181558 22 53 1.6 9.7 0.00 0.00 0.00 30 1008.8
20260504180059 21 113 1.6 9.7 0.00 0.00 0.00 32 1008.7
20260504180000 21 245 3.2 9.7 0.00 0.00 0.00 32 1009.1
20260504174543 21 243 3.2 12.9 0.00 0.00 0.00 31 1009.3
20260504173015 21 236 1.6 16.1 0.00 0.00 0.00 34 1009.3
20260504171553 20 22 6.4 19.3 0.00 0.00 0.00 33 1009.3
20260504081527 4 10 0.0 1.6 0.00 0.00 0.00 66 1011.8
20260504044533 3 11 0.0 0.0 0.00 0.00 0.00 70 1011.8
20260504043013 3 11 0.0 0.0 0.00 0.00 0.00 68 1011.9
20260504041547 3 11 0.0 0.0 0.00 0.00 0.00 67 1011.8
20260504040128 2 11 0.0 0.0 0.00 0.00 0.00 69 1011.7
20260504034533 2 11 0.0 1.6 0.00 0.00 0.00 68 1011.5
20260504033009 3 11 0.0 0.0 0.00 0.00 0.00 67 1011.4
20260504031559 3 11 0.0 0.0 0.00 0.00 0.00 68 1011.3
20260504030057 2 11 0.0 1.6 0.00 0.00 0.00 71 1011.2
20260504024537 2 11 0.0 0.0 0.00 0.00 0.00 72 1011.1
20260504023014 2 11 0.0 0.0 0.00 0.00 0.00 72 1011.0
20260504021552 2 345 0.0 1.6 0.00 0.00 0.00 72 1011.1
20260504020111 2 345 0.0 0.0 0.00 0.00 0.00 71 1010.9
20260504020001 2 345 0.0 0.0 0.00 0.00 0.00 71 1010.9
20260504014542 3 345 0.0 0.0 0.00 0.00 0.00 70 1010.9